Regional Weather Roundup
Issued by NWS

Current Version | Previous Version | Text Only | Print | Product List | Glossary On
Versions: 1 2 3 4 5 6 7 8 9 10 11 12 13 14 15 16 17 18 19 20 21 22 23 24 25 26 27 28 29 30 31 32 33 34 35 36 37 38 39 40 41 42 43 44 45 46 47 48 49 50
000
ASUS43 KOUN 161500
RWROK

WEATHER ROUNDUP FOR OKLAHOMA
NATIONAL WEATHER SERVICE NORMAN OK
1000 AM CDT SUN JUN 16 2019

NOTE: "FAIR" INDICATES FEW OR NO CLOUDS BELOW 12,000 FEET WITH NO
      SIGNIFICANT WEATHER AND/OR OBSTRUCTIONS TO VISIBILITY.

OKZ001>007-009>012-014-015-017-161600-
NORTHWEST OKLAHOMA AND THE PANHANDLE

CITY           SKY/WX    TMP DP  RH WIND       PRES   REMARKS
GAGE           CLOUDY    67  63  87 S8        29.95R
GUYMON         SUNNY     68  60  75 N9        29.99R
ENID/WOODRING  LGT RAIN  68  66  94 N3        29.90S
$$

OKZ016-021>023-033>039-044-045-161600-
SOUTHWEST OKLAHOMA

CITY           SKY/WX    TMP DP  RH WIND       PRES   REMARKS
LAWTON/REGL    MOSUNNY   74  65  73 SE6       29.92F
LAWTON/FT SILL MOSUNNY   74  68  81 E5        29.91F
FREDERICK      MOSUNNY   71  66  84 E3        29.92R
CLINTON        CLOUDY    68  62  81 CALM      29.96S
HOBART         CLOUDY    71  65  81 E3        29.97R
ALTUS AFB      SUNNY     74  64  72 E6        29.95R
$$

OKZ018>020-024>031-161600-
CENTRAL OKLAHOMA

CITY           SKY/WX    TMP DP  RH WIND       PRES   REMARKS
OKLAHOMA CITY  PTSUNNY   69  66  90 SW8       29.92F
OKC/WILEY POST SUNNY     73  66  78 S8        29.92R
OKC/TINKER AFB MOSUNNY   71  65  83 SW7       29.91F
STILLWATER     CLOUDY    69  66  90 S8        29.90F
GUTHRIE        PTSUNNY   70  66  87 SW7       29.91R
$$

OKZ008-013-054>072-161600-
NORTHEAST OKLAHOMA

CITY           SKY/WX    TMP DP  RH WIND       PRES   REMARKS
TULSA          PTSUNNY   72  66  81 S9        29.86S
TULSA/JONES    SUNNY     75  65  70 S8        29.88S
PONCA CITY     CLOUDY    69  65  86 MISG      29.90F
BARTLESVILLE   CLOUDY    67  64  90 CALM      29.91R
MUSKOGEE       SUNNY     72  68  87 S8        29.92R
$$

OKZ032-040>043-046>053-073>077-161600-
SOUTH CENTRAL/SOUTHEAST OKLAHOMA

CITY           SKY/WX    TMP DP  RH WIND       PRES   REMARKS
MCALESTER      MOSUNNY   70  66  87 VRB3      29.93R
$$




USA.gov is the U.S. government's official web portal to all federal, state and local government web resources and services.